This is the latest recevied weather packets stored in our database for station/object BARLOW-WX. If no packets are shown the sender has not sent any weather packets the latest 10 day(s).
| Time | Temp. | Humidity | Pressure | Rain* | Wind** | Luminosity | Snow |
|---|---|---|---|---|---|---|---|
| 1788037280 | 25° C | 54% | 991.5 hPa | 0 mm | - | - | - |
| 1788036377 | 25° C | 59% | 992.1 hPa | 0 mm | - | - | - |
| 1788035479 | 25° C | 55% | 991.6 hPa | 0 mm | - | - | - |
| 1788034576 | 25.56° C | 55% | 991.6 hPa | 0 mm | - | - | - |
| 1788033678 | 25.56° C | 55% | 991.6 hPa | 0 mm | - | - | - |
| 1788032777 | 25.56° C | 52% | 991.9 hPa | 0 mm | - | - | - |
| 1788031876 | 25° C | 52% | 991.9 hPa | 0 mm | - | - | - |
| 1788030979 | 25.56° C | 52% | 992 hPa | 0 mm | - | - | - |
| 1788030080 | 25.56° C | 52% | 992 hPa | 0 mm | - | - | - |
| 1788029177 | 25.56° C | 48% | 993 hPa | 0 mm | - | - | - |
| 1788028276 | 25.56° C | 48% | 993.1 hPa | 0 mm | - | - | - |
| 1788027377 | 25.56° C | 48% | 993.1 hPa | 0 mm | - | - | - |
| 1788026477 | 25.56° C | 48% | 993.1 hPa | 0 mm | - | - | - |
| 1788025576 | 25.56° C | 54% | 993.4 hPa | 0 mm | - | - | - |
| 1788024677 | 25.56° C | 51% | 993.1 hPa | 0 mm | - | - | - |
| 1788023778 | 25.56° C | 51% | 993.1 hPa | 0 mm | - | - | - |
| 1788022881 | 25.56° C | 51% | 993.1 hPa | 0 mm | - | - | - |
| 1788021978 | 25° C | 54% | 993.4 hPa | 0 mm | - | - | - |
| 1788021077 | 25.56° C | 47% | 992.9 hPa | 0 mm | - | - | - |
| 1788020176 | 25° C | 47% | 992.9 hPa | 0 mm | - | - | - |
| 1788019277 | 25° C | 47% | 992.9 hPa | 0 mm | - | - | - |
| 1788018378 | 25° C | 60% | 993.5 hPa | 0 mm | - | - | - |
| 1788016576 | 23.89° C | 56% | 993.4 hPa | 0 mm | - | - | - |
| 1788015677 | 23.33° C | 56% | 993.4 hPa | 0 mm | - | - | - |
| 1788014775 | 22.78° C | 69% | 992.7 hPa | 0 mm | - | - | - |
* Rain latest hour (hover to see other rain measurements)
** Current wind speed in m/s (hover to see current wind gust speed)